Wind_Speed
16 16 16 16 16 15 14 16 18 18 17 16 15 14 13 12 10 9 9 8 8 9 8 6 4 2 2 3 6 8 10 11 12 13 14 15 17 19 21 22 24 26 28 28 25 20 18 19 20 21 21 21 21 21 21 20 19 17 15 13 11 10 10 11 12 14 15 17 17 18 19 19 20 21 21 22 23 23 24 24 24 24 25 27 29
16 16 16 16 15 15 15 16 18 18 18 17 15 13 13 11 10 10 10 9 9 8 7 6 4 1 1 3 5 7 9 11 12 13 14 15 17 19 21 22 24 25 27 28 26 22 18 17 18 20 20 21 20 20 21 21 20 20 18 17 15 13 12 12 13 15 16 18 18 18 19 20 20 21 21 22 23 23 23 23 23 24 24 25 27
17 17 16 16 16 16 16 16 17 18 19 17 15 13 13 12 11 11 11 10 9 8 7 6 5 3 3 4 6 7 9 11 12 14 15 16 17 19 20 22 23 24 26 27 27 24 19 17 17 19 19 20 20 20 20 20 20 20 19 19 18 17 16 15 15 16 17 18 19 19 20 20 21 21 22 23 23 23 24 24 24 25 25 26 27
20 19 17 17 17 17 17 17 17 18 18 18 16 15 14 13 12 12 12 11 10 10 9 8 6 4 4 5 7 9 10 12 13 14 15 16 17 19 20 21 23 24 25 26 26 25 22 19 18 18 19 20 20 20 20 20 21 21 21 21 21 20 20 19 18 18 19 20 20 20 21 21 21 21 23 23 24 24 24 25 25 24 25 27 28
21 21 19 18 18 18 18 19 19 18 18 18 18 18 17 16 15 14 13 12 11 10 9 8 7 5 6 7 8 10 12 13 15 15 16 17 18 19 21 22 23 25 26 26 27 27 25 22 20 20 20 21 21 21 21 21 22 22 22 23 23 23 22 22 21 21 21 22 22 22 22 22 22 22 22 23 24 24 24 25 25 25 25 27 29
21 23 22 21 20 20 20 20 19 19 19 18 19 19 19 19 18 16 15 14 13 12 11 9 7 6 7 9 10 11 13 15 16 17 17 18 19 20 22 23 24 26 26 27 27 28 27 26 24 22 21 21 22 22 22 22 22 22 23 23 23 23 23 23 22 22 22 22 23 23 22 22 23 23 23 23 24 23 23 24 25 25 25 27 29
19 22 24 23 22 21 20 20 20 20 20 19 19 19 20 20 19 19 18 17 16 15 14 11 9 8 9 11 12 13 15 16 18 18 19 19 20 21 23 24 25 26 28 28 28 29 29 29 28 26 23 22 22 22 22 22 22 22 23 23 23 23 23 23 23 23 23 23 23 23 23 22 23 23 23 23 24 24 23 22 23 23 25 27 30
19 21 23 24 24 22 21 20 21 20 21 21 21 21 20 20 20 20 21 20 19 18 16 14 12 11 12 13 14 15 16 18 19 20 20 20 21 22 24 25 26 28 29 29 30 30 32 32 31 29 26 23 22 22 22 22 22 23 23 24 24 24 24 23 23 23 23 23 23 23 23 23 22 23 23 23 23 24 24 24 23 22 23 25 29
18 20 22 23 23 23 22 22 22 22 22 22 23 22 22 21 21 21 22 21 20 19 17 15 14 14 15 15 16 17 19 20 21 22 22 21 22 23 25 26 27 28 29 30 32 34 35 35 33 31 28 24 22 22 22 23 23 23 24 25 25 24 24 24 24 24 24 23 24 24 23 23 23 23 23 23 23 23 24 25 24 23 22 22 25
18 19 20 21 21 23 24 24 23 23 23 23 23 23 23 24 24 24 24 23 22 20 18 17 16 16 17 18 18 19 20 21 22 23 23 23 23 24 25 26 26 28 30 33 35 36 34 33 32 30 27 23 21 21 22 23 24 24 24 25 24 24 24 24 24 24 24 24 24 24 23 23 24 23 23 23 23 24 24 24 23 24 24 24 24
18 18 18 19 20 23 24 25 25 25 25 24 24 24 25 26 27 27 27 26 24 23 20 19 18 19 20 20 21 21 22 22 23 23 23 24 24 25 26 26 28 30 33 35 36 35 34 33 32 28 24 21 20 20 21 22 23 24 24 24 23 23 24 24 24 24 24 24 24 23 23 22 22 23 23 23 24 24 25 24 24 24 26 27 27
18 18 17 18 20 22 24 25 26 27 27 26 25 25 26 27 29 30 30 28 27 25 23 22 22 22 22 23 23 23 23 23 23 23 24 25 25 26 26 28 31 33 34 36 35 35 36 34 30 24 21 19 19 20 21 22 23 24 24 24 24 24 24 24 24 23 22 22 22 22 22 22 22 22 23 24 24 25 25 25 26 26 27 28 29
18 18 18 19 20 22 23 24 26 26 27 27 27 27 27 28 30 31 31 30 28 27 26 25 24 24 25 24 24 24 24 23 23 23 24 25 26 27 28 31 34 34 35 35 35 37 37 32 25 21 19 18 18 19 20 21 23 23 23 24 25 25 24 24 23 21 20 19 19 20 21 22 23 23 23 24 24 25 25 26 26 26 27 27 28
19 19 19 20 20 21 22 24 25 26 26 27 28 29 29 30 31 32 32 31 30 28 27 26 26 26 26 26 25 25 24 23 23 23 24 25 26 28 30 33 35 35 35 34 34 36 32 25 19 18 18 18 18 18 20 21 22 23 24 25 25 24 23 22 20 19 19 19 19 21 22 22 23 22 23 24 24 24 25 26 26 26 26 26 27
19 19 20 21 21 22 22 23 24 25 26 27 28 29 30 31 32 33 33 32 30 28 27 27 27 27 27 27 26 25 24 23 23 23 24 25 26 28 31 34 35 34 34 33 34 31 24 18 16 17 17 17 17 18 19 20 21 22 23 24 23 22 21 19 18 18 18 19 21 21 22 21 21 21 22 22 23 24 25 26 27 27 27 27 27
15 17 19 21 22 22 23 23 23 24 25 27 28 29 31 32 33 33 33 32 30 29 29 29 28 28 28 27 26 24 23 22 22 23 24 25 27 29 32 33 33 32 32 33 31 25 18 15 16 16 16 16 17 18 19 19 20 21 22 22 22 20 18 16 16 17 18 19 20 21 21 21 20 21 22 22 23 24 26 27 28 29 30 30 29
14 14 16 18 21 23 24 24 24 24 25 27 28 30 31 32 33 33 33 32 30 29 29 29 29 29 28 27 25 24 22 21 21 22 25 28 29 31 32 32 31 31 31 30 26 21 17 16 16 15 15 16 17 18 18 19 19 20 20 20 19 17 15 15 16 17 18 19 19 19 20 21 21 21 21 23 24 25 27 28 29 30 32 33 33
17 15 14 15 18 21 24 26 26 26 26 27 28 29 31 33 34 33 33 32 30 30 29 30 30 30 30 28 26 23 20 20 21 24 28 31 33 32 31 30 29 30 30 26 21 18 17 15 15 15 16 16 16 17 18 18 18 18 18 18 15 13 12 14 16 17 18 18 18 19 19 20 20 21 21 23 25 26 28 29 31 32 34 35 35
22 20 17 15 17 19 22 26 27 28 28 28 28 29 31 33 33 33 32 32 31 31 32 32 32 32 31 29 26 23 21 21 22 25 30 34 35 33 29 28 28 28 26 21 18 17 16 15 15 16 16 16 16 16 17 17 17 17 16 15 12 10 12 14 16 17 17 17 18 18 19 19 20 21 22 24 26 27 29 30 32 33 34 35 37
26 24 21 19 19 19 21 24 27 29 29 29 29 30 32 34 34 34 34 33 33 35 35 35 35 34 31 27 26 25 23 22 24 29 34 36 36 32 28 26 26 25 22 18 17 16 15 15 16 16 16 16 16 16 16 16 16 16 15 12 10 10 13 15 17 17 17 17 18 19 20 20 22 23 25 27 28 29 30 31 32 33 34 35 35
30 27 25 23 23 22 21 23 25 27 28 28 29 30 32 34 34 35 35 34 35 36 36 37 39 36 28 23 24 25 23 24 29 34 36 35 34 31 28 25 23 22 19 16 16 16 16 16 16 16 16 16 16 16 16 16 15 15 13 11 9 10 14 17 18 18 17 17 18 19 20 21 23 25 26 28 29 31 32 33 34 34 34 34 35
37 34 30 28 27 25 24 25 25 26 27 28 29 30 31 32 33 34 35 35 36 36 37 38 38 33 25 22 24 26 26 29 33 34 32 31 31 29 25 22 20 18 16 16 16 16 15 15 15 15 16 16 16 16 16 15 15 14 13 11 10 12 16 18 19 18 17 17 18 19 20 22 23 25 27 28 30 31 33 35 35 36 36 35 36
44 40 35 33 31 28 28 27 27 27 28 29 30 31 32 32 33 34 36 38 39 38 36 36 35 30 25 23 25 27 28 30 32 32 30 28 27 24 21 18 16 15 14 14 15 14 14 14 14 15 16 16 17 16 15 15 15 15 14 12 11 14 17 19 19 18 18 18 19 20 21 22 24 25 27 29 30 32 34 35 36 37 36 36 35
46 44 38 35 31 29 30 30 31 31 31 32 34 35 36 37 37 38 40 44 46 42 38 36 33 28 25 25 25 27 29 31 31 30 28 26 22 19 17 15 15 14 13 13 13 13 12 12 14 16 17 17 17 17 16 16 16 15 14 12 12 15 18 19 18 18 18 19 20 21 22 24 25 26 28 29 31 33 34 35 36 37 37 36 35
45 45 43 38 33 30 31 32 34 33 33 35 38 40 40 41 41 41 42 46 46 42 38 36 31 26 26 28 28 29 32 32 30 27 24 22 18 15 14 14 14 15 14 14 13 13 12 12 14 17 18 18 18 18 18 18 17 15 14 12 13 16 19 19 19 19 19 21 22 23 24 25 26 28 29 30 32 33 34 35 36 36 37 37 36
38 39 39 38 34 33 33 35 37 37 37 38 40 43 44 43 42 44 46 46 43 39 35 32 29 27 30 31 31 33 33 30 26 22 20 17 15 14 14 14 14 14 14 14 13 13 13 14 16 18 19 19 19 19 19 18 17 16 15 13 14 17 19 20 20 20 20 22 23 25 27 28 29 30 31 31 32 33 34 35 36 37 37 38 37
30 31 34 35 35 36 37 38 40 41 40 39 38 38 39 38 38 40 39 36 33 31 29 28 29 31 34 34 33 34 32 26 20 17 16 15 14 15 14 14 14 14 13 13 14 15 16 17 18 19 21 21 20 19 19 18 17 16 15 15 16 18 20 21 20 21 21 23 24 26 28 29 30 31 32 33 33 34 35 36 36 37 38 38 38
21 23 27 30 32 34 36 37 40 42 41 39 36 35 35 34 34 34 32 29 29 29 29 31 33 35 35 33 31 29 27 22 17 14 15 15 15 15 15 14 14 13 12 13 15 17 18 19 20 21 22 21 20 20 20 19 17 17 16 16 18 20 21 21 21 21 22 23 25 26 28 29 30 31 32 33 34 35 35 36 36 37 37 38 38
19 20 22 24 26 27 28 29 31 33 34 35 35 35 35 36 36 35 34 33 33 32 33 35 36 35 32 27 23 22 21 19 16 17 18 17 16 16 15 15 14 13 13 14 16 17 19 20 21 22 22 20 20 20 20 19 18 18 18 18 19 21 21 22 22 22 22 24 25 27 28 28 29 30 31 33 34 35 35 36 36 36 37 37 37
16 17 18 20 21 22 22 21 22 24 27 29 31 33 34 35 35 34 33 32 32 33 33 33 33 31 26 20 18 19 19 19 19 20 19 17 16 16 16 17 16 15 15 15 16 17 19 20 21 22 21 21 22 21 20 18 18 18 19 19 20 21 22 22 22 22 23 25 26 28 28 29 30 31 32 33 34 35 35 35 35 36 36 36 36
17 16 16 16 16 18 19 19 20 21 22 23 25 27 28 29 29 29 29 29 28 28 27 26 26 25 20 15 15 17 19 20 21 20 18 17 16 17 18 18 16 15 15 15 16 17 19 20 21 22 22 22 22 21 20 19 19 19 19 20 21 22 22 23 23 23 25 26 28 29 30 31 33 33 33 34 35 35 35 35 35 35 35 36 36
24 23 22 22 22 22 21 21 20 20 20 20 20 21 22 23 23 23 23 22 22 21 21 21 21 20 16 14 15 17 20 21 22 20 19 18 17 17 17 16 14 14 15 16 16 18 20 21 22 22 23 22 22 21 20 19 19 19 19 20 21 22 23 23 24 25 26 28 29 31 32 34 34 34 34 34 35 35 35 35 35 36 36 36 36
21 20 20 22 23 24 24 24 23 22 23 23 23 23 23 22 21 21 20 20 20 20 20 21 20 18 17 16 16 18 21 22 22 22 21 19 18 17 16 15 14 15 16 16 17 20 22 23 23 23 23 22 22 21 20 18 18 19 19 21 22 22 22 23 24 26 27 29 30 32 33 34 34 33 33 34 35 35 35 35 36 36 37 37 36
20 19 18 18 19 20 21 22 22 23 23 23 23 23 23 22 22 22 22 21 21 21 21 21 21 20 19 18 19 21 23 24 24 25 24 22 20 19 18 16 16 16 16 17 19 21 22 23 23 23 23 23 22 20 19 18 19 19 20 21 22 22 22 23 25 27 28 30 30 32 33 33 33 33 33 34 35 35 35 35 36 36 37 37 36
22 21 20 19 20 21 21 21 22 23 23 22 22 22 23 23 23 23 22 22 22 22 23 23 22 22 22 22 22 24 25 26 27 26 25 23 22 22 22 20 18 17 17 19 21 22 22 21 22 21 21 22 21 19 18 18 19 19 21 21 21 21 21 23 25 27 28 29 30 31 32 32 32 32 34 35 35 36 36 35 35 35 36 36 36
25 25 24 23 23 24 24 23 23 24 25 24 24 24 24 23 23 23 23 23 23 23 23 23 24 26 28 27 25 26 27 27 25 22 21 22 24 25 25 24 20 18 19 21 22 22 21 21 21 21 21 20 19 18 18 18 19 20 20 20 20 20 22 24 26 28 28 28 30 31 31 31 31 33 34 35 35 35 35 35 35 35 35 36 35
27 26 25 25 26 26 25 24 24 25 27 29 29 28 25 24 23 24 24 25 25 25 24 24 26 28 28 26 25 24 23 22 20 20 21 24 24 25 27 26 22 20 21 22 22 21 21 21 21 21 20 20 18 18 18 18 19 20 19 19 19 21 23 25 27 27 27 29 31 31 30 30 31 33 34 35 35 35 34 35 35 35 35 35 35
28 27 26 25 25 25 23 22 22 23 25 28 30 30 28 25 25 26 27 27 27 26 26 27 27 28 27 26 24 21 19 19 20 20 22 22 21 24 27 26 22 22 23 23 22 21 20 20 20 20 19 19 18 18 18 19 20 19 19 19 20 22 24 26 27 26 27 30 31 31 30 30 31 33 34 35 35 35 35 35 35 36 36 36 35
27 28 27 26 25 24 24 23 22 21 22 24 24 23 22 22 23 25 27 27 27 27 27 27 27 27 27 26 22 19 18 19 18 18 18 17 18 21 25 24 23 23 24 23 22 21 20 20 19 18 18 18 19 19 19 20 20 19 19 20 21 22 24 26 26 26 28 30 30 30 29 30 31 33 35 35 35 35 35 35 35 36 37 37 36
25 25 25 24 24 24 24 24 23 23 23 24 21 19 19 19 20 22 24 25 25 26 26 26 24 23 22 21 19 17 17 18 17 16 16 16 17 21 23 24 24 25 25 24 22 21 20 18 18 18 19 20 19 19 19 20 20 20 20 20 22 23 25 25 26 27 28 29 29 28 29 30 31 33 35 35 35 34 34 35 35 36 36 37 36
25 23 22 22 23 23 25 25 25 25 25 24 23 21 20 20 21 22 22 23 24 24 24 23 21 19 18 18 17 17 17 18 18 17 18 18 20 22 24 23 24 25 25 24 22 21 19 18 18 20 20 20 19 19 20 20 20 20 20 22 23 24 25 26 26 27 28 28 27 28 29 30 32 34 35 35 34 33 33 34 35 36 36 36 36
24 23 22 22 22 23 24 25 25 26 25 25 24 22 21 21 22 23 23 24 23 21 19 19 19 18 18 18 17 18 19 19 19 19 20 21 23 23 23 21 22 24 24 23 22 20 19 18 20 21 21 20 20 20 20 21 21 21 22 23 24 25 26 26 27 27 27 26 27 28 29 31 32 34 34 34 34 33 33 34 35 35 36 35 35
24 23 23 23 23 23 23 23 25 26 26 25 24 22 22 22 23 23 24 24 22 18 16 17 18 18 19 19 18 19 20 21 21 21 21 21 21 22 21 20 22 23 24 23 22 20 19 19 22 22 22 21 21 21 21 21 22 23 24 25 26 26 27 27 27 27 26 26 27 28 30 31 32 33 34 33 33 33 33 34 35 35 35 35 34
24 23 23 22 22 22 22 22 23 24 25 26 25 24 23 23 23 22 22 23 20 18 17 19 18 18 20 20 21 21 23 24 24 23 21 19 20 20 20 21 23 23 23 22 22 20 19 21 23 23 22 21 21 21 21 22 23 25 26 26 27 28 28 27 27 25 25 26 27 29 30 30 31 32 32 33 33 32 32 33 34 35 35 34 33
24 24 23 23 22 22 21 21 22 23 24 25 25 25 24 23 22 21 21 21 21 20 20 20 20 20 21 22 23 24 24 24 24 23 21 19 19 20 21 22 23 22 22 22 22 20 21 22 24 24 23 22 22 21 22 23 25 26 27 28 28 28 28 27 25 24 25 26 28 28 29 29 30 31 32 32 32 32 33 33 35 35 35 34 33
24 24 24 23 23 23 23 22 21 22 23 25 25 25 24 24 23 22 22 22 22 21 20 20 21 21 22 23 25 25 24 22 22 21 21 20 21 22 23 22 21 21 22 22 21 21 22 23 24 24 23 22 22 21 22 24 26 27 28 28 28 27 26 25 24 24 25 26 27 26 27 28 29 30 31 32 33 33 33 34 35 35 35 35 34
24 24 24 23 22 22 22 23 22 22 24 26 26 25 25 25 24 24 23 22 21 20 20 22 23 22 23 24 24 24 22 21 21 21 21 22 22 22 22 21 20 21 22 22 22 22 23 24 24 24 24 22 22 22 23 25 26 27 27 27 26 26 25 24 24 24 25 26 25 25 26 28 29 30 32 33 33 34 34 34 35 35 35 35 34
24 25 25 24 23 22 22 22 23 23 24 26 26 26 25 25 24 24 23 22 21 21 22 23 24 24 24 24 24 23 21 21 21 22 23 23 22 21 20 21 22 22 22 22 22 22 23 23 23 22 21 21 21 22 24 26 27 26 25 25 24 24 24 24 24 25 25 24 24 25 26 28 30 31 33 33 34 34 35 35 35 36 35 34 33
24 25 25 24 23 22 22 22 24 25 25 26 26 25 25 25 24 23 22 21 20 21 22 23 24 24 24 24 23 22 21 22 22 22 23 23 22 21 21 22 23 24 22 21 21 22 22 22 21 20 19 20 21 23 25 25 25 24 23 22 22 23 24 24 25 25 24 23 24 25 27 29 31 32 33 34 34 35 35 36 36 36 36 35 33
24 25 25 25 23 22 22 23 23 24 24 25 25 25 26 25 23 22 20 19 19 20 21 22 23 24 24 23 21 21 22 23 22 22 23 23 22 21 22 23 24 23 21 20 21 20 19 18 17 17 18 19 21 23 24 23 22 21 20 20 21 22 23 24 25 24 23 23 25 26 28 30 31 32 33 34 35 35 36 36 36 36 35 35 33
25 25 25 26 25 24 23 23 23 23 23 25 26 26 26 25 23 21 19 19 19 20 21 22 23 24 23 21 20 22 23 24 24 24 23 22 22 22 23 24 23 21 20 20 20 17 15 15 16 17 19 20 21 22 22 21 20 20 19 20 20 22 23 23 23 23 23 24 25 27 29 30 31 32 33 34 35 36 36 36 36 36 35 34 32
Wind_Direction
200 197 195 194 193 193 190 186 181 176 170 168 168 169 171 175 177 177 179 177 171 162 154 153 150 120 71 54 40 27 20 15 13 14 15 14 13 13 13 13 14 15 15 15 14 9 7 9 12 12 11 10 10 9 9 7 4 3 1 357 349 338 327 316 307 302 297 294 294 294 293 292 291 291 291 291 291 290 289 287 285 283 280 279 279
206 204 202 199 199 198 194 191 188 186 182 179 180 181 181 184 188 192 195 195 191 181 176 180 185 205 326 357 14 13 8 3 1 1 2 3 3 5 6 7 8 10 11 12 12 8 1 360 3 4 3 2 2 2 1 0 358 356 355 353 348 342 333 322 312 305 300 299 298 297 295 294 293 292 291 290 289 289 288 286 284 282 279 276 274
208 209 208 206 204 203 200 197 194 193 192 192 193 195 195 195 198 203 206 205 203 199 198 204 211 236 290 326 343 351 353 352 350 350 351 353 354 356 358 0 2 4 5 7 8 7 0 353 353 355 356 355 355 355 354 352 351 349 348 347 344 341 336 329 321 313 307 304 302 300 297 295 293 292 290 288 287 286 285 284 283 281 280 279 277
209 211 211 210 210 208 205 203 200 199 201 204 206 208 209 209 209 211 215 217 214 210 213 222 227 245 284 313 325 332 338 339 338 339 341 344 346 348 351 353 355 358 360 0 2 4 0 351 344 344 347 347 348 348 347 346 346 345 344 343 342 339 336 331 326 320 314 310 307 304 301 297 293 291 289 288 287 286 286 285 284 283 283 281 279
212 213 213 213 212 212 210 208 206 205 207 211 213 215 217 219 220 221 224 228 230 227 227 234 239 254 282 301 312 320 326 327 326 329 334 337 339 342 345 347 349 352 353 354 356 358 358 352 341 335 337 340 342 342 343 342 342 342 341 341 338 336 333 329 326 322 317 314 311 307 304 300 296 293 290 289 288 289 289 288 287 286 284 282 281
215 214 215 215 215 214 213 213 211 210 211 215 218 220 222 225 226 229 231 235 241 244 246 249 253 264 281 294 304 312 316 317 318 321 326 330 333 337 340 342 344 346 346 347 348 350 351 350 343 334 329 332 336 338 338 337 338 338 337 336 334 331 328 326 324 321 318 315 312 308 305 301 298 296 294 292 290 288 288 288 288 288 285 282 280
218 217 217 218 219 218 216 217 217 216 217 219 222 225 227 231 232 234 237 240 243 249 255 261 266 272 282 290 298 304 308 309 311 314 318 323 327 330 334 337 340 341 340 341 341 342 343 345 343 336 327 325 328 331 332 332 332 333 332 331 329 327 325 323 322 320 318 315 312 309 306 302 300 298 297 296 295 294 292 288 286 286 286 284 281
220 220 220 220 222 222 220 221 222 222 222 223 227 230 232 236 238 239 242 246 248 252 257 263 269 273 279 285 291 296 300 303 305 308 312 317 322 325 329 332 335 336 336 335 336 336 336 336 337 334 326 319 320 323 326 327 328 329 329 328 327 325 323 321 319 318 317 314 311 308 306 304 303 301 301 301 300 300 299 296 292 288 285 284 284
225 224 224 223 224 224 224 225 226 227 227 227 229 233 236 240 242 243 245 248 251 254 257 261 266 271 276 281 286 291 295 299 301 303 307 312 318 321 325 327 330 331 332 331 330 329 328 328 328 328 322 314 313 318 322 324 326 327 327 327 325 324 321 319 318 316 314 312 309 307 306 305 304 303 303 303 302 302 301 301 301 300 294 290 289
230 229 228 226 225 225 226 227 228 230 232 232 232 234 238 241 244 246 248 250 253 255 258 262 266 271 275 279 284 288 293 296 297 299 304 309 315 318 321 325 327 329 329 328 326 325 325 324 324 321 315 308 309 315 319 321 323 325 325 325 324 322 320 319 317 314 313 311 308 308 307 306 306 307 308 309 309 308 307 308 308 307 303 299 296
235 234 232 228 227 227 228 229 229 231 234 236 236 237 238 242 245 249 251 253 256 259 261 264 268 272 275 278 283 287 292 295 296 298 303 307 313 317 320 322 325 327 328 327 326 325 325 325 323 316 308 305 309 315 318 319 321 323 323 322 322 320 319 318 316 314 313 311 309 309 310 310 312 314 316 317 316 315 314 314 313 311 309 307 305
238 238 236 231 228 228 229 230 231 232 234 236 239 240 241 242 245 249 252 255 259 262 264 267 270 272 275 279 283 286 290 292 293 296 301 306 311 315 317 320 321 324 327 327 326 325 326 326 322 311 303 306 313 316 317 319 321 321 321 321 321 321 320 318 317 315 314 313 312 312 313 316 320 321 321 321 321 320 319 319 317 317 316 313 312
238 239 239 237 234 231 231 231 232 233 235 236 239 241 243 244 245 249 253 256 259 262 265 267 269 272 276 279 281 284 287 289 290 293 298 303 308 312 316 318 320 322 324 325 325 325 325 324 318 308 306 311 314 315 317 319 320 320 321 322 322 321 321 320 319 318 318 319 319 319 321 325 327 327 326 325 325 325 324 323 322 321 319 316 314
237 238 238 239 238 236 234 234 235 235 236 237 239 241 243 245 247 250 253 256 260 263 265 268 270 273 276 279 281 283 285 285 286 290 296 303 308 313 316 317 318 320 321 322 324 323 321 320 315 310 311 313 313 315 317 319 320 321 322 322 322 323 324 325 326 328 328 329 329 329 330 330 330 330 330 330 329 329 328 327 326 324 323 321 319
238 240 240 240 240 239 238 238 237 237 237 238 239 241 243 245 247 250 253 257 261 263 265 267 268 271 274 277 279 281 281 281 284 290 298 305 310 314 315 315 316 317 318 319 320 318 313 312 312 311 311 312 312 314 316 318 319 320 320 320 322 324 327 329 332 334 335 334 334 332 331 331 333 335 335 334 333 332 332 331 331 330 329 327 324
242 242 242 242 241 241 241 240 239 238 237 238 240 242 244 245 248 250 254 257 261 262 263 264 267 270 274 275 276 276 276 278 284 292 299 306 310 312 312 312 312 313 314 316 315 310 303 305 308 310 311 311 311 312 314 314 315 316 317 319 322 325 329 332 335 338 339 337 334 331 330 333 339 341 339 337 337 337 336 335 335 334 331 329 327
254 249 248 246 244 244 243 242 241 239 238 239 241 243 245 246 249 251 254 258 261 262 263 264 266 268 268 267 267 268 271 277 286 294 300 304 307 309 310 309 307 307 310 312 307 299 298 304 307 308 309 309 308 308 308 309 310 313 316 319 322 327 333 338 341 342 341 338 336 335 337 340 344 344 341 340 340 340 339 338 337 335 332 330 329
260 256 253 250 248 246 244 243 243 241 240 241 242 244 246 248 250 253 255 258 260 261 261 261 261 262 262 261 260 260 266 275 282 288 294 299 302 305 306 304 301 303 307 305 296 290 296 303 303 304 305 305 304 303 302 304 308 311 315 319 322 329 336 341 343 341 340 339 340 341 343 345 345 344 342 343 343 342 341 340 338 336 333 332 330
259 257 255 254 255 253 248 244 243 243 243 243 244 245 247 249 251 252 254 255 257 257 256 255 255 257 260 262 262 262 264 268 275 284 291 295 297 299 300 297 297 300 302 296 287 286 293 297 297 300 302 301 300 298 298 301 304 307 311 315 318 327 334 337 337 335 337 340 341 343 344 345 345 344 344 345 345 344 342 341 339 336 334 332 330
255 253 250 250 254 255 251 247 246 245 245 245 245 247 249 250 251 252 252 253 254 255 254 254 253 252 253 258 260 261 263 270 283 294 297 294 292 294 295 294 295 298 298 290 282 283 287 291 294 297 298 298 296 293 293 295 298 302 305 306 308 320 327 329 329 330 335 339 342 343 345 345 344 345 346 346 345 343 342 340 338 336 334 332 329
251 249 248 248 251 252 252 250 248 248 248 247 247 248 249 250 251 252 253 253 254 255 254 254 254 252 251 257 262 263 271 283 292 297 296 291 289 291 293 293 294 295 293 286 281 281 284 288 291 293 294 293 290 288 287 289 293 297 299 297 299 311 319 322 325 328 332 337 341 344 345 345 345 346 346 345 344 342 340 339 338 336 334 332 329
246 243 242 247 251 253 253 252 251 250 251 251 251 252 253 254 254 255 255 255 256 256 254 254 257 258 258 268 278 282 287 291 293 293 291 288 288 289 290 290 289 288 287 284 279 279 282 285 287 289 289 288 285 283 282 285 291 294 292 290 296 308 316 321 324 326 329 334 338 342 343 344 344 345 344 344 342 341 339 338 337 336 334 332 330
253 248 244 243 249 255 258 257 256 256 257 258 259 259 261 262 263 262 262 261 259 256 253 253 256 259 265 278 287 288 288 290 292 292 291 289 287 285 283 284 284 284 283 280 276 278 283 285 285 286 286 284 281 278 278 283 289 288 284 286 297 309 317 322 323 323 326 331 336 339 341 342 342 342 342 342 341 339 338 336 335 333 331 330 328
263 263 256 246 245 251 256 259 262 263 263 264 265 265 266 266 266 267 267 266 262 256 253 255 258 260 271 283 285 282 285 290 290 289 289 287 283 279 278 280 282 283 280 277 277 282 286 284 281 281 281 279 276 274 277 284 286 282 280 286 297 309 316 321 321 322 325 329 332 335 337 338 339 340 340 340 339 338 337 335 332 331 329 328 327
261 262 258 250 243 243 246 252 259 262 263 265 265 265 265 265 266 267 268 270 269 264 259 260 263 268 277 284 283 282 285 286 284 282 282 280 276 273 275 278 280 281 280 281 285 287 286 281 276 276 276 274 270 271 277 283 281 278 280 286 295 305 314 319 321 322 324 326 329 332 334 336 337 338 338 338 338 336 335 333 331 329 328 327 326
255 255 255 253 251 249 248 252 256 256 257 261 263 264 265 265 266 268 268 269 270 267 261 262 270 278 283 286 285 282 280 278 275 275 273 270 267 267 270 274 277 278 280 283 286 285 280 276 272 271 271 270 267 270 277 280 277 276 279 283 290 300 311 318 320 320 322 324 327 330 332 334 335 336 337 337 336 334 333 331 330 329 328 326 325
254 255 255 254 254 253 253 256 257 257 258 262 266 270 270 267 267 270 271 271 270 267 266 272 281 285 286 286 283 276 272 272 274 271 263 258 258 262 267 270 271 272 276 281 282 280 275 271 269 267 267 265 265 270 275 275 273 274 277 279 285 295 307 316 318 319 321 324 327 329 330 331 332 334 335 334 333 332 330 330 329 328 327 326 325
246 251 253 254 254 253 254 256 256 256 258 262 267 271 273 271 272 276 279 280 277 274 275 279 283 284 284 282 276 271 270 273 273 263 252 250 255 261 266 267 265 265 271 277 278 276 272 269 267 266 264 262 264 269 272 270 270 274 275 276 282 291 304 314 317 318 320 323 325 326 327 328 329 330 331 331 330 329 328 328 328 327 326 325 325
233 237 242 247 250 252 256 256 255 255 258 261 266 270 272 274 275 276 276 276 276 276 278 279 280 282 281 276 271 272 274 271 262 253 250 252 256 260 261 260 258 258 264 269 271 271 269 267 266 264 262 261 264 268 268 268 271 274 274 276 282 292 302 311 315 316 317 319 321 323 324 325 326 327 328 328 327 327 327 327 327 326 325 325 324
234 235 236 240 244 248 254 257 256 256 259 262 266 269 271 271 271 270 270 272 274 275 276 275 274 273 270 265 264 269 268 260 255 257 258 256 255 257 259 258 257 257 260 265 268 269 269 267 265 263 260 261 264 265 266 268 272 273 273 277 284 292 300 308 312 313 314 316 318 320 321 323 325 326 327 327 327 327 326 326 326 326 325 324 324
246 249 251 254 257 257 259 262 263 263 264 265 266 267 268 268 269 269 269 271 273 273 271 268 265 264 264 264 263 260 259 259 263 268 266 258 256 259 260 260 261 262 266 270 270 269 268 265 263 261 260 261 262 263 264 268 270 270 273 278 284 291 299 306 309 311 313 315 317 319 321 324 325 326 327 327 327 326 326 326 326 325 325 324 324
258 260 264 266 267 264 263 263 264 264 266 267 267 266 266 266 266 267 268 267 267 266 263 261 261 262 265 267 263 259 260 264 268 271 265 257 257 260 260 262 267 269 271 275 275 271 267 262 258 258 260 260 260 260 263 266 268 270 274 279 284 291 299 305 307 309 313 315 317 319 322 324 326 326 327 326 326 326 326 327 326 325 326 326 326
266 267 269 269 268 267 265 262 259 258 259 260 260 261 262 262 261 262 261 260 259 259 259 260 262 264 266 266 263 261 263 267 271 271 263 253 253 260 262 264 267 267 269 276 279 275 269 262 256 255 256 256 256 258 262 266 268 270 275 279 285 292 299 303 305 310 313 315 317 320 323 324 325 325 326 326 326 326 327 327 327 327 327 327 326
267 267 265 264 264 264 263 262 261 258 256 255 255 254 254 254 255 255 255 256 257 258 259 261 263 265 266 266 262 260 264 269 270 266 259 251 251 261 267 264 261 265 272 278 280 277 270 259 253 251 252 253 256 260 264 267 269 272 276 280 286 293 298 301 306 310 313 315 317 320 322 322 323 324 325 326 326 327 327 327 327 327 326 325 324
270 268 265 262 259 258 259 259 259 257 254 252 251 251 251 253 255 256 258 259 260 260 261 263 266 267 267 265 261 260 263 265 260 255 252 251 253 263 270 266 260 265 274 277 278 275 266 254 247 247 249 252 257 263 266 268 270 273 277 282 287 292 297 302 306 309 311 313 316 319 319 320 321 323 325 326 326 327 328 327 326 326 324 323 323
274 273 271 269 266 264 263 261 259 256 254 252 251 251 252 255 256 258 261 263 264 265 266 267 269 270 266 261 260 263 265 263 257 252 252 254 258 267 270 263 257 263 273 275 275 272 260 248 243 244 248 253 258 263 266 268 271 274 278 282 287 292 297 301 304 306 309 312 314 316 317 318 320 323 325 326 327 327 327 326 325 324 324 323 324
277 277 276 275 272 270 268 264 260 257 254 253 253 251 251 253 255 257 261 263 264 265 266 265 267 269 266 263 266 271 268 261 253 250 253 256 264 271 268 259 255 264 273 276 275 268 254 243 239 242 248 254 259 263 266 268 271 275 279 284 289 293 297 300 302 305 308 310 312 315 316 318 320 323 325 326 326 326 326 326 326 325 325 325 325
278 279 279 277 276 276 273 269 264 260 257 256 254 249 247 250 252 254 257 259 260 261 262 261 263 267 268 269 268 264 255 249 248 251 256 261 271 276 269 258 256 266 273 276 275 264 248 237 236 242 250 256 259 262 265 268 272 277 282 286 290 294 296 298 301 305 308 310 312 314 315 317 320 323 324 325 325 326 327 328 327 327 326 326 325
274 276 277 277 276 276 274 270 267 264 264 266 264 255 249 250 253 253 253 255 257 259 262 264 266 268 269 267 258 246 241 246 250 253 256 263 273 275 265 255 256 267 275 277 273 260 242 232 235 244 251 255 257 260 264 269 274 279 283 287 291 293 295 297 302 306 308 310 311 313 313 316 320 323 324 324 325 327 328 329 329 328 327 326 325
273 274 276 275 275 274 272 271 269 268 267 269 269 262 254 253 254 253 252 252 254 257 261 264 266 267 265 258 245 236 240 247 248 246 249 260 270 268 257 252 260 270 275 274 268 253 237 231 238 247 251 253 256 261 267 272 276 280 285 288 291 292 294 298 303 306 307 308 310 310 312 316 319 322 323 323 325 327 329 330 330 328 327 325 325
276 276 275 274 273 273 273 272 272 271 269 267 265 262 258 255 255 255 255 255 256 259 261 260 259 259 257 252 244 238 239 242 244 245 251 261 265 258 251 255 267 274 274 270 260 243 231 234 244 250 251 254 260 265 269 274 278 283 287 289 290 292 295 300 304 305 306 307 308 310 313 316 318 320 321 323 325 328 330 331 330 329 327 325 325
275 276 274 272 271 271 273 274 274 272 271 269 267 264 261 257 255 255 255 256 258 260 261 258 255 254 254 251 246 244 243 243 246 251 255 259 260 255 254 263 273 275 274 267 251 235 230 239 248 252 254 258 263 267 271 277 282 285 287 288 290 293 297 302 304 305 305 306 308 310 313 315 317 319 321 322 325 329 331 332 331 329 327 325 325
272 273 273 273 272 271 272 273 273 273 273 272 270 266 263 260 258 258 259 262 264 265 264 263 262 259 255 247 240 240 244 244 245 249 251 253 254 255 259 268 274 274 271 260 243 232 234 244 251 254 258 261 266 270 275 280 284 285 286 288 290 295 299 303 303 303 304 306 308 310 313 315 317 320 321 323 326 330 332 332 332 330 328 326 325
271 271 272 272 274 274 274 274 274 273 273 273 271 269 265 263 261 262 265 269 271 269 267 268 268 266 261 253 244 241 243 244 244 246 247 248 251 256 263 269 271 270 262 249 237 234 239 247 253 257 261 264 268 272 277 282 284 285 286 288 292 297 300 302 302 302 303 305 308 311 314 317 319 321 322 325 327 330 332 333 333 331 329 326 324
271 271 271 270 271 272 274 274 274 272 271 270 269 268 267 266 265 264 265 268 270 267 265 266 267 264 263 260 252 245 242 241 242 244 245 246 251 258 263 266 266 262 251 240 235 237 243 249 253 258 262 266 269 273 278 281 282 283 285 289 294 297 298 299 300 301 302 305 308 312 316 319 321 323 325 326 329 331 333 334 333 332 330 327 325
274 273 272 271 270 270 271 271 271 270 270 269 268 268 269 269 268 266 263 263 265 264 263 264 263 261 261 260 252 244 240 241 241 241 242 245 252 260 263 263 258 249 240 236 237 241 245 249 254 259 263 266 269 272 277 279 280 282 287 290 293 295 296 297 298 299 300 304 309 315 319 322 324 326 327 329 330 332 334 334 333 332 330 328 325
275 274 273 273 272 270 269 268 268 268 268 268 268 268 268 267 267 266 263 260 259 260 260 260 258 257 257 255 249 242 241 243 241 240 243 250 257 262 263 259 248 239 235 236 240 244 248 252 257 260 262 263 267 271 275 277 280 284 288 291 292 294 295 296 296 296 300 305 311 317 321 324 326 328 329 330 332 333 333 333 333 331 330 328 325
274 275 275 275 276 274 270 267 266 265 266 267 267 267 266 266 265 264 261 257 254 254 255 255 255 254 251 248 244 242 240 237 235 239 247 255 259 260 257 250 242 238 237 239 243 249 254 257 259 258 258 261 266 272 276 279 283 286 288 290 292 293 294 294 294 296 300 306 312 317 321 324 326 327 329 331 332 333 333 333 332 331 330 328 325
274 276 277 277 278 277 274 271 268 265 265 266 267 266 265 264 262 260 258 255 253 253 254 254 253 249 244 239 239 240 237 233 234 242 251 257 258 256 251 244 240 239 240 243 248 253 256 256 254 254 257 262 269 274 278 281 283 284 287 290 292 293 293 293 293 296 301 306 312 316 320 323 325 326 328 330 332 333 333 332 332 330 329 327 324
272 274 276 278 279 278 277 276 273 270 269 268 268 267 266 264 261 259 258 257 256 257 258 256 252 245 239 235 238 241 238 235 238 246 253 257 257 253 248 245 243 241 243 248 252 253 251 248 249 253 259 266 271 275 277 279 281 283 288 292 293 293 293 293 294 297 302 307 312 315 319 322 324 326 328 331 332 333 332 331 330 329 327 326 324
272 273 275 277 278 277 276 275 274 274 273 271 266 264 264 264 262 261 260 260 260 260 259 255 248 241 237 237 241 242 239 238 241 245 248 251 253 252 251 251 249 247 248 250 250 247 244 246 252 259 264 268 271 273 274 277 280 286 290 293 294 295 295 295 296 300 303 307 311 315 319 322 323 325 328 331 332 332 331 330 329 328 327 325 324
Height
3138 3139 3140 3141 3142 3143 3144 3145 3146 3146 3147 3147 3148 3149 3149 3149 3150 3150 3150 3150 3151 3151 3152 3152 3152 3151 3151 3151 3151 3150 3150 3149 3149 3148 3148 3147 3146 3145 3144 3143 3141 3140 3139 3137 3136 3135 3134 3133 3132 3131 3130 3129 3128 3127 3127 3126 3125 3124 3124 3123 3122 3121 3120 3119 3118 3117 3115 3114 3114 3114 3113 3112 3111 3110 3109 3108 3107 3106 3105 3104 3103 3102 3101 3099 3097
3137 3138 3139 3140 3141 3142 3143 3144 3145 3146 3146 3147 3147 3148 3148 3149 3149 3149 3150 3150 3150 3151 3151 3151 3151 3151 3151 3150 3150 3150 3149 3149 3148 3148 3147 3147 3146 3145 3143 3142 3140 3139 3138 3136 3135 3134 3133 3133 3131 3130 3129 3128 3127 3126 3125 3124 3123 3122 3121 3121 3120 3119 3118 3117 3116 3115 3113 3112 3112 3111 3110 3109 3108 3107 3106 3105 3104 3103 3101 3100 3099 3098 3097 3096 3094
3136 3137 3138 3140 3141 3142 3142 3143 3144 3145 3145 3146 3146 3147 3147 3148 3148 3148 3149 3149 3149 3150 3150 3151 3151 3150 3150 3149 3149 3149 3149 3148 3148 3147 3146 3146 3145 3144 3142 3141 3140 3138 3137 3136 3135 3133 3133 3132 3131 3130 3129 3128 3126 3125 3124 3123 3122 3121 3119 3118 3117 3117 3116 3115 3114 3112 3111 3110 3109 3108 3108 3107 3106 3104 3103 3102 3101 3099 3098 3097 3096 3095 3094 3092 3090
3135 3136 3137 3138 3139 3140 3141 3142 3143 3144 3145 3145 3146 3146 3146 3147 3147 3147 3148 3148 3148 3149 3150 3150 3150 3150 3149 3148 3148 3147 3147 3147 3147 3146 3145 3145 3144 3142 3141 3140 3139 3137 3136 3135 3134 3133 3132 3131 3130 3129 3128 3127 3126 3125 3123 3122 3121 3119 3118 3116 3115 3114 3113 3112 3111 3110 3108 3107 3106 3106 3105 3104 3103 3101 3100 3098 3097 3096 3095 3094 3093 3092 3091 3088 3086
3133 3134 3135 3136 3138 3139 3140 3141 3142 3143 3144 3144 3145 3145 3145 3146 3146 3146 3147 3147 3147 3147 3148 3148 3149 3148 3148 3147 3147 3146 3146 3145 3145 3144 3144 3143 3142 3141 3140 3138 3137 3136 3135 3134 3133 3132 3132 3131 3130 3129 3127 3126 3125 3123 3122 3120 3119 3118 3116 3115 3113 3112 3111 3110 3109 3107 3106 3104 3103 3102 3101 3100 3099 3098 3097 3096 3094 3093 3092 3091 3089 3089 3087 3084 3081
3131 3132 3133 3134 3136 3137 3138 3139 3140 3142 3142 3143 3143 3144 3144 3145 3145 3145 3145 3145 3145 3145 3146 3147 3147 3147 3146 3146 3145 3145 3144 3143 3143 3142 3142 3141 3140 3139 3138 3137 3136 3135 3134 3133 3132 3131 3130 3130 3128 3127 3126 3125 3123 3122 3120 3119 3118 3116 3115 3113 3112 3111 3109 3108 3106 3105 3103 3102 3101 3099 3098 3097 3096 3095 3094 3092 3091 3091 3090 3088 3086 3085 3083 3081 3077
3129 3130 3131 3132 3134 3135 3136 3137 3139 3140 3141 3142 3142 3142 3143 3143 3143 3144 3144 3143 3143 3144 3144 3145 3145 3145 3145 3144 3144 3143 3142 3142 3141 3140 3140 3139 3138 3137 3137 3136 3135 3134 3132 3131 3130 3129 3128 3127 3126 3125 3124 3122 3121 3120 3119 3117 3116 3115 3113 3112 3110 3109 3107 3106 3104 3103 3101 3099 3098 3097 3095 3094 3093 3091 3090 3089 3087 3087 3086 3086 3084 3082 3080 3076 3073
3128 3128 3129 3130 3132 3133 3134 3136 3137 3138 3139 3140 3140 3141 3141 3141 3141 3142 3141 3141 3141 3142 3142 3143 3143 3143 3143 3142 3142 3141 3141 3140 3138 3138 3137 3137 3137 3136 3135 3134 3133 3132 3130 3129 3128 3127 3126 3125 3124 3123 3121 3120 3119 3118 3117 3115 3114 3113 3111 3110 3108 3107 3105 3104 3102 3101 3099 3097 3095 3094 3092 3091 3090 3088 3087 3086 3084 3082 3081 3080 3080 3080 3078 3074 3069
3126 3127 3128 3129 3130 3132 3133 3133 3134 3135 3136 3137 3138 3138 3139 3139 3139 3139 3139 3139 3139 3140 3140 3141 3141 3141 3140 3140 3140 3139 3138 3137 3136 3135 3135 3135 3134 3134 3133 3133 3132 3131 3129 3127 3126 3125 3124 3122 3121 3120 3119 3118 3116 3115 3114 3113 3111 3110 3109 3107 3106 3104 3103 3101 3100 3098 3097 3095 3093 3092 3090 3088 3087 3086 3084 3083 3081 3080 3078 3076 3075 3074 3073 3071 3067
3125 3126 3126 3127 3129 3130 3131 3131 3132 3133 3133 3134 3135 3136 3137 3137 3137 3137 3137 3137 3137 3137 3138 3138 3138 3138 3138 3137 3137 3136 3135 3135 3134 3133 3132 3132 3132 3131 3131 3130 3130 3129 3127 3125 3122 3121 3121 3119 3118 3117 3116 3115 3114 3112 3111 3110 3109 3108 3106 3105 3104 3102 3100 3099 3097 3096 3094 3092 3090 3089 3087 3086 3084 3083 3081 3080 3078 3076 3074 3073 3071 3068 3066 3065 3064
3124 3125 3126 3126 3127 3128 3129 3129 3130 3130 3131 3132 3133 3134 3134 3134 3134 3134 3134 3134 3134 3135 3135 3136 3135 3135 3135 3134 3134 3133 3133 3132 3131 3130 3129 3129 3129 3128 3128 3127 3127 3126 3124 3122 3119 3117 3116 3115 3114 3113 3112 3111 3110 3109 3108 3107 3106 3105 3104 3103 3102 3100 3098 3096 3095 3093 3092 3090 3087 3086 3084 3083 3081 3079 3078 3076 3074 3072 3070 3068 3066 3063 3061 3059 3058
3122 3123 3124 3125 3125 3126 3126 3127 3128 3128 3129 3130 3130 3131 3132 3132 3131 3131 3131 3131 3132 3132 3133 3133 3133 3132 3132 3131 3131 3130 3130 3129 3129 3128 3126 3126 3125 3125 3124 3123 3123 3122 3121 3119 3117 3114 3112 3111 3110 3109 3109 3108 3108 3107 3105 3104 3103 3102 3101 3100 3099 3098 3096 3094 3093 3091 3089 3087 3085 3083 3081 3080 3078 3076 3074 3072 3071 3068 3066 3064 3061 3059 3057 3055 3052
3120 3121 3122 3123 3123 3124 3124 3125 3125 3126 3127 3128 3129 3129 3129 3129 3129 3128 3129 3129 3130 3130 3130 3130 3130 3130 3130 3129 3129 3128 3128 3127 3126 3125 3124 3123 3122 3122 3121 3120 3119 3118 3118 3116 3113 3111 3109 3108 3107 3107 3107 3106 3105 3104 3103 3102 3101 3100 3098 3097 3096 3095 3093 3092 3090 3089 3087 3085 3083 3080 3079 3077 3075 3073 3071 3069 3067 3065 3063 3061 3059 3057 3055 3052 3050
3118 3119 3119 3120 3121 3122 3122 3123 3123 3124 3125 3126 3126 3127 3127 3126 3126 3126 3126 3127 3127 3128 3128 3128 3128 3128 3128 3127 3127 3126 3126 3125 3124 3123 3122 3121 3120 3119 3118 3116 3115 3114 3114 3112 3110 3108 3107 3106 3105 3105 3104 3103 3102 3101 3100 3099 3098 3096 3096 3095 3093 3092 3091 3089 3087 3086 3084 3082 3080 3078 3076 3075 3073 3071 3069 3067 3064 3063 3061 3059 3057 3055 3053 3051 3048
3115 3116 3117 3118 3119 3119 3120 3120 3121 3121 3122 3123 3123 3124 3124 3124 3123 3124 3124 3124 3125 3126 3126 3126 3126 3126 3125 3125 3125 3124 3123 3122 3122 3121 3120 3119 3118 3117 3115 3113 3111 3110 3109 3108 3107 3106 3105 3104 3103 3102 3102 3101 3100 3099 3098 3097 3096 3095 3094 3093 3091 3090 3089 3087 3085 3084 3082 3080 3078 3076 3074 3073 3071 3069 3067 3065 3063 3061 3059 3057 3055 3053 3050 3048 3046
3113 3114 3114 3115 3116 3116 3117 3117 3118 3118 3119 3119 3119 3120 3120 3120 3120 3120 3121 3122 3122 3123 3123 3123 3123 3123 3123 3123 3122 3121 3120 3120 3119 3118 3117 3116 3115 3114 3112 3110 3108 3107 3106 3104 3103 3103 3102 3101 3100 3100 3099 3098 3098 3097 3096 3095 3094 3093 3092 3091 3089 3088 3087 3085 3084 3082 3081 3079 3077 3075 3073 3071 3069 3067 3065 3063 3062 3060 3057 3055 3052 3050 3047 3045 3043
3112 3112 3112 3112 3113 3113 3113 3114 3114 3114 3114 3115 3115 3115 3115 3115 3116 3116 3117 3118 3119 3119 3120 3120 3120 3120 3119 3118 3118 3118 3117 3117 3116 3115 3114 3112 3111 3110 3109 3107 3105 3104 3103 3101 3100 3100 3099 3098 3098 3097 3097 3096 3096 3095 3094 3093 3092 3091 3090 3089 3088 3086 3085 3084 3082 3081 3079 3078 3076 3074 3072 3070 3068 3066 3064 3062 3060 3058 3055 3053 3050 3048 3045 3042 3039
3110 3110 3110 3110 3110 3110 3110 3110 3110 3110 3110 3110 3110 3111 3111 3110 3110 3111 3112 3114 3114 3115 3116 3116 3116 3115 3114 3113 3113 3114 3114 3113 3113 3112 3110 3109 3108 3107 3106 3104 3103 3102 3101 3099 3098 3097 3096 3096 3095 3095 3095 3094 3094 3093 3092 3092 3091 3090 3088 3087 3086 3085 3084 3083 3081 3080 3078 3077 3075 3073 3071 3069 3067 3065 3063 3061 3058 3056 3053 3050 3047 3044 3041 3039 3035
3107 3107 3108 3108 3107 3107 3106 3106 3106 3106 3106 3106 3106 3106 3106 3105 3106 3106 3107 3108 3109 3109 3109 3109 3109 3109 3109 3109 3110 3111 3111 3110 3109 3109 3107 3106 3104 3103 3103 3102 3100 3099 3099 3097 3096 3095 3094 3093 3093 3093 3092 3092 3092 3091 3090 3090 3089 3088 3087 3086 3085 3084 3083 3082 3080 3079 3077 3076 3074 3072 3070 3068 3066 3064 3062 3059 3056 3053 3051 3048 3045 3042 3039 3036 3032
3103 3104 3104 3104 3104 3104 3103 3102 3102 3102 3102 3102 3102 3102 3101 3101 3101 3102 3102 3103 3103 3102 3101 3102 3102 3102 3103 3104 3106 3107 3107 3106 3106 3105 3104 3102 3100 3099 3099 3099 3097 3097 3096 3095 3093 3092 3092 3091 3090 3090 3090 3089 3089 3089 3088 3088 3087 3086 3086 3085 3084 3083 3082 3081 3080 3078 3076 3074 3072 3071 3069 3067 3064 3062 3059 3056 3054 3051 3049 3046 3043 3040 3037 3034 3030
3098 3100 3101 3101 3100 3100 3100 3099 3098 3098 3097 3097 3097 3097 3097 3096 3097 3097 3097 3097 3096 3095 3095 3095 3095 3096 3099 3101 3102 3102 3103 3102 3102 3100 3098 3097 3096 3095 3095 3095 3094 3093 3093 3092 3091 3090 3089 3088 3087 3087 3087 3087 3087 3086 3086 3086 3085 3085 3084 3084 3083 3082 3081 3080 3078 3076 3074 3073 3071 3069 3067 3065 3063 3060 3057 3054 3052 3049 3046 3043 3040 3037 3034 3031 3027
3092 3092 3094 3096 3097 3097 3096 3095 3095 3094 3093 3093 3092 3092 3092 3092 3093 3093 3093 3093 3091 3090 3090 3091 3091 3095 3098 3099 3098 3098 3097 3097 3096 3095 3094 3093 3093 3092 3091 3091 3090 3090 3089 3089 3088 3088 3087 3085 3085 3085 3085 3085 3084 3084 3084 3084 3083 3083 3082 3082 3081 3080 3079 3078 3076 3074 3073 3071 3069 3068 3065 3063 3061 3058 3055 3052 3049 3046 3043 3040 3037 3034 3031 3028 3024
3088 3088 3089 3091 3092 3093 3092 3091 3091 3090 3090 3089 3088 3088 3088 3089 3089 3089 3089 3087 3086 3086 3086 3087 3089 3092 3095 3096 3095 3093 3092 3092 3091 3091 3090 3090 3089 3088 3087 3087 3086 3086 3086 3086 3086 3085 3084 3083 3082 3082 3082 3082 3082 3082 3082 3082 3081 3081 3080 3080 3079 3078 3077 3076 3074 3072 3071 3069 3067 3065 3063 3061 3058 3055 3053 3050 3047 3044 3041 3038 3035 3032 3029 3026 3023
3087 3088 3089 3088 3089 3089 3088 3087 3087 3086 3086 3085 3085 3084 3085 3085 3085 3085 3084 3081 3080 3082 3084 3085 3087 3089 3090 3091 3090 3089 3088 3087 3087 3086 3086 3086 3085 3084 3084 3083 3082 3082 3082 3083 3082 3082 3081 3080 3080 3080 3079 3079 3079 3079 3079 3079 3079 3078 3078 3078 3077 3076 3075 3074 3072 3070 3068 3066 3065 3063 3061 3058 3056 3053 3050 3047 3044 3041 3038 3035 3032 3029 3026 3023 3020
3083 3084 3084 3085 3085 3084 3083 3083 3083 3082 3082 3081 3080 3081 3081 3082 3082 3081 3079 3077 3077 3081 3083 3083 3084 3086 3086 3086 3085 3084 3083 3083 3082 3082 3082 3082 3081 3081 3080 3079 3079 3079 3079 3079 3078 3078 3078 3077 3077 3077 3076 3076 3076 3076 3077 3077 3076 3076 3075 3075 3075 3074 3073 3071 3070 3068 3066 3064 3062 3060 3058 3056 3053 3051 3048 3044 3041 3038 3036 3033 3030 3027 3023 3020 3017
3077 3077 3078 3080 3081 3080 3079 3079 3079 3078 3077 3077 3076 3077 3078 3079 3078 3076 3073 3073 3075 3078 3080 3080 3081 3082 3082 3081 3080 3079 3078 3078 3078 3078 3078 3078 3078 3078 3077 3076 3076 3076 3075 3075 3075 3074 3074 3074 3074 3074 3074 3074 3074 3074 3074 3074 3074 3073 3073 3073 3073 3072 3071 3069 3067 3066 3064 3062 3060 3058 3055 3053 3051 3048 3045 3042 3039 3036 3033 3030 3027 3024 3020 3017 3014
3073 3073 3074 3075 3076 3076 3075 3075 3075 3075 3074 3074 3074 3074 3075 3075 3075 3071 3070 3071 3074 3075 3076 3077 3077 3077 3077 3077 3076 3074 3073 3073 3074 3074 3074 3075 3074 3074 3074 3073 3073 3073 3072 3072 3072 3072 3072 3071 3071 3071 3071 3071 3072 3072 3072 3072 3071 3071 3071 3071 3071 3070 3069 3067 3065 3063 3062 3060 3058 3056 3053 3051 3048 3045 3042 3039 3036 3033 3030 3027 3024 3021 3017 3014 3010
3070 3070 3070 3070 3071 3071 3071 3071 3071 3070 3070 3070 3070 3070 3070 3071 3070 3069 3070 3071 3072 3072 3073 3073 3073 3073 3073 3072 3072 3070 3069 3070 3071 3071 3071 3071 3071 3070 3070 3070 3070 3070 3070 3070 3070 3069 3069 3069 3069 3069 3068 3069 3069 3070 3069 3069 3069 3068 3068 3068 3068 3067 3066 3065 3063 3061 3060 3058 3056 3054 3051 3049 3046 3043 3040 3037 3034 3031 3027 3024 3021 3017 3014 3011 3007
3067 3067 3067 3067 3067 3066 3066 3066 3066 3066 3066 3066 3065 3065 3066 3066 3067 3067 3068 3068 3069 3069 3069 3068 3068 3068 3068 3068 3068 3068 3067 3068 3068 3067 3067 3068 3067 3067 3067 3067 3067 3067 3067 3067 3067 3067 3066 3066 3066 3066 3066 3066 3067 3067 3067 3066 3066 3066 3066 3065 3065 3065 3064 3062 3061 3059 3058 3056 3054 3052 3050 3047 3044 3041 3038 3035 3031 3028 3024 3021 3018 3014 3011 3008 3004
3063 3063 3063 3063 3063 3062 3061 3061 3062 3062 3063 3062 3062 3061 3062 3062 3063 3064 3064 3065 3065 3065 3065 3064 3064 3064 3064 3064 3065 3065 3065 3064 3064 3064 3064 3064 3064 3064 3064 3064 3064 3064 3064 3064 3064 3063 3063 3063 3063 3063 3063 3064 3064 3065 3064 3064 3064 3063 3063 3063 3063 3062 3061 3060 3058 3057 3055 3054 3052 3050 3047 3044 3041 3038 3035 3031 3028 3025 3021 3018 3014 3011 3008 3005 3001
3060 3059 3059 3058 3058 3058 3057 3057 3057 3058 3058 3059 3059 3059 3059 3059 3060 3060 3060 3061 3061 3061 3061 3060 3060 3060 3061 3061 3062 3062 3062 3061 3061 3061 3061 3061 3061 3061 3061 3061 3061 3061 3061 3061 3060 3060 3060 3060 3060 3061 3061 3062 3062 3062 3062 3062 3062 3061 3061 3060 3060 3059 3058 3057 3056 3054 3053 3051 3049 3046 3044 3041 3037 3034 3031 3028 3025 3021 3018 3015 3011 3008 3005 3002 2998
3058 3057 3056 3055 3055 3054 3054 3054 3054 3054 3055 3055 3056 3056 3056 3057 3057 3057 3057 3057 3058 3058 3057 3057 3057 3058 3058 3059 3059 3059 3058 3058 3058 3058 3058 3058 3058 3058 3058 3058 3057 3057 3058 3058 3057 3057 3057 3057 3058 3058 3059 3059 3060 3060 3060 3060 3059 3059 3058 3058 3057 3056 3056 3054 3053 3051 3049 3047 3045 3042 3039 3036 3033 3030 3027 3024 3021 3018 3015 3011 3008 3005 3001 2998 2995
3054 3053 3053 3053 3052 3051 3051 3052 3052 3052 3052 3053 3053 3053 3054 3054 3055 3055 3055 3055 3055 3055 3054 3054 3054 3055 3055 3056 3056 3056 3055 3054 3054 3054 3054 3055 3055 3054 3054 3054 3054 3054 3055 3055 3055 3054 3054 3054 3055 3056 3057 3057 3058 3058 3058 3058 3057 3056 3056 3055 3054 3054 3053 3051 3050 3048 3046 3044 3041 3039 3036 3033 3030 3027 3024 3021 3018 3015 3012 3008 3005 3001 2998 2995 2992
3050 3049 3050 3049 3049 3049 3049 3049 3050 3050 3050 3050 3050 3051 3051 3051 3051 3052 3052 3052 3052 3052 3051 3051 3051 3051 3052 3052 3052 3051 3050 3050 3050 3050 3050 3050 3050 3050 3050 3050 3051 3051 3052 3052 3052 3051 3051 3051 3052 3053 3054 3055 3055 3056 3055 3055 3054 3054 3053 3052 3052 3051 3050 3048 3046 3045 3043 3041 3038 3036 3033 3030 3027 3024 3021 3018 3015 3012 3009 3005 3002 2998 2995 2992 2989
3046 3046 3046 3046 3046 3046 3046 3047 3047 3047 3047 3047 3047 3047 3047 3047 3048 3048 3048 3048 3048 3048 3048 3048 3048 3048 3048 3048 3047 3046 3045 3045 3045 3045 3046 3046 3046 3047 3047 3047 3048 3048 3049 3049 3049 3048 3048 3049 3050 3051 3052 3053 3053 3053 3053 3052 3052 3051 3050 3050 3049 3048 3046 3045 3043 3042 3040 3038 3035 3033 3030 3027 3025 3022 3019 3015 3012 3009 3005 3002 2999 2996 2993 2989 2986
3043 3043 3043 3043 3043 3042 3042 3043 3043 3043 3044 3044 3043 3043 3043 3044 3044 3044 3044 3044 3044 3044 3044 3044 3044 3043 3042 3042 3042 3042 3041 3041 3041 3042 3043 3043 3043 3043 3043 3044 3045 3045 3045 3046 3045 3045 3045 3046 3048 3049 3050 3050 3051 3050 3050 3049 3049 3048 3048 3047 3046 3045 3043 3042 3040 3039 3037 3035 3033 3030 3028 3025 3022 3019 3016 3013 3009 3006 3003 3000 2996 2993 2990 2987 2983
3040 3040 3040 3040 3039 3038 3039 3039 3039 3039 3039 3039 3039 3039 3040 3040 3040 3040 3040 3040 3040 3040 3040 3041 3040 3039 3038 3038 3038 3038 3038 3038 3038 3039 3039 3039 3039 3039 3040 3041 3042 3042 3042 3042 3042 3042 3043 3044 3045 3047 3047 3048 3048 3048 3047 3046 3046 3045 3045 3045 3043 3042 3040 3039 3037 3036 3034 3032 3030 3027 3024 3022 3019 3016 3013 3010 3007 3004 3000 2997 2994 2990 2987 2984 2981
3037 3036 3036 3036 3036 3035 3035 3035 3035 3035 3035 3035 3035 3035 3035 3036 3036 3036 3036 3036 3036 3036 3036 3036 3036 3035 3034 3034 3034 3034 3034 3034 3035 3035 3036 3036 3036 3036 3037 3038 3038 3038 3038 3039 3039 3040 3040 3042 3043 3044 3045 3045 3045 3044 3044 3043 3043 3043 3042 3041 3040 3038 3037 3035 3034 3032 3030 3028 3026 3024 3021 3018 3016 3013 3010 3007 3004 3001 2997 2994 2990 2987 2984 2981 2978
3034 3033 3033 3033 3032 3032 3031 3031 3031 3031 3031 3031 3031 3031 3031 3031 3032 3032 3032 3032 3031 3031 3031 3031 3031 3031 3030 3030 3029 3029 3030 3030 3031 3032 3032 3033 3033 3033 3034 3035 3035 3035 3035 3036 3036 3037 3038 3040 3041 3042 3042 3042 3042 3041 3041 3040 3040 3039 3039 3038 3036 3035 3034 3032 3031 3029 3027 3025 3023 3021 3018 3015 3013 3010 3007 3004 3001 2997 2994 2990 2987 2984 2981 2978 2975
3030 3030 3029 3029 3028 3028 3027 3027 3027 3028 3028 3028 3027 3027 3027 3028 3028 3027 3027 3027 3027 3026 3026 3026 3026 3026 3026 3025 3025 3026 3026 3027 3027 3028 3028 3029 3030 3030 3031 3031 3031 3031 3032 3033 3033 3034 3036 3037 3038 3039 3039 3039 3038 3038 3037 3037 3037 3036 3035 3034 3033 3032 3030 3029 3028 3026 3024 3022 3020 3018 3015 3013 3010 3007 3004 3001 2998 2994 2990 2987 2984 2981 2978 2975 2972
3026 3026 3026 3025 3025 3024 3023 3023 3023 3023 3023 3023 3023 3023 3023 3023 3023 3023 3022 3022 3022 3022 3021 3022 3022 3022 3022 3022 3022 3022 3023 3023 3024 3024 3025 3026 3026 3027 3027 3028 3028 3028 3029 3030 3031 3032 3034 3035 3035 3035 3035 3035 3035 3035 3034 3034 3034 3033 3032 3031 3030 3029 3027 3026 3024 3023 3021 3019 3017 3015 3012 3010 3007 3004 3001 2998 2995 2991 2987 2984 2981 2978 2975 2972 2969
3021 3021 3021 3021 3021 3020 3020 3019 3019 3018 3018 3018 3019 3019 3019 3018 3018 3018 3017 3017 3017 3016 3016 3017 3018 3018 3018 3018 3018 3019 3019 3020 3020 3021 3021 3022 3023 3023 3024 3024 3024 3025 3025 3027 3028 3030 3031 3032 3032 3032 3032 3032 3032 3032 3032 3032 3031 3030 3029 3028 3027 3026 3024 3023 3021 3019 3017 3016 3014 3012 3009 3006 3004 3001 2998 2995 2992 2988 2984 2981 2978 2975 2972 2970 2966
3017 3017 3017 3017 3016 3016 3015 3015 3014 3014 3013 3013 3014 3014 3014 3013 3013 3013 3012 3012 3012 3012 3012 3012 3013 3014 3014 3014 3014 3015 3016 3016 3017 3017 3018 3018 3019 3020 3020 3021 3021 3022 3022 3024 3025 3027 3028 3028 3028 3028 3029 3029 3029 3029 3029 3029 3028 3027 3025 3024 3023 3022 3021 3019 3018 3016 3014 3013 3011 3009 3006 3003 3000 2998 2995 2992 2989 2985 2982 2978 2976 2973 2970 2967 2964
3012 3012 3012 3012 3012 3012 3011 3011 3010 3009 3008 3008 3008 3008 3008 3008 3008 3008 3008 3008 3008 3008 3008 3008 3009 3010 3010 3010 3010 3011 3012 3013 3013 3014 3014 3015 3016 3016 3017 3018 3018 3019 3020 3021 3023 3024 3025 3025 3025 3026 3026 3027 3027 3027 3026 3026 3025 3023 3022 3021 3020 3019 3017 3016 3014 3013 3011 3009 3008 3005 3003 3000 2997 2995 2992 2989 2986 2982 2979 2976 2973 2970 2967 2964 2961
3007 3007 3007 3007 3007 3007 3007 3007 3006 3005 3004 3004 3003 3003 3003 3003 3003 3004 3004 3004 3004 3004 3004 3004 3005 3006 3006 3006 3007 3008 3008 3009 3010 3010 3011 3011 3012 3013 3014 3015 3015 3016 3017 3019 3021 3021 3022 3022 3022 3023 3023 3024 3024 3023 3023 3022 3021 3020 3019 3018 3016 3015 3014 3012 3011 3009 3008 3006 3004 3002 2999 2997 2994 2992 2989 2986 2983 2979 2976 2973 2970 2967 2964 2961 2958
3003 3003 3002 3003 3003 3003 3003 3002 3002 3001 3000 3000 2999 2999 2999 2999 2999 2999 3000 3000 3000 3001 3001 3001 3001 3002 3002 3003 3004 3004 3005 3005 3006 3007 3007 3008 3008 3009 3010 3011 3012 3014 3015 3017 3018 3019 3019 3019 3019 3020 3020 3020 3020 3020 3020 3019 3017 3016 3015 3014 3013 3012 3011 3009 3008 3006 3005 3003 3001 2999 2996 2994 2991 2989 2986 2984 2980 2976 2973 2970 2967 2964 2961 2958 2955
2998 2998 2998 2998 2998 2998 2998 2998 2997 2997 2996 2995 2995 2995 2995 2995 2995 2995 2995 2996 2996 2997 2997 2997 2998 2998 2998 2999 3000 3001 3001 3002 3003 3004 3004 3005 3006 3007 3007 3008 3009 3011 3013 3014 3015 3016 3016 3016 3016 3016 3017 3017 3017 3017 3016 3015 3014 3013 3012 3011 3010 3009 3007 3006 3004 3003 3002 3000 2998 2995 2993 2991 2988 2986 2983 2981 2977 2974 2970 2967 2964 2961 2958 2956 2953
2993 2993 2993 2993 2993 2993 2993 2993 2992 2992 2991 2991 2991 2991 2991 2990 2990 2991 2991 2991 2992 2992 2993 2993 2994 2994 2995 2996 2996 2997 2998 2999 3000 3000 3001 3001 3003 3004 3004 3005 3007 3009 3010 3012 3012 3013 3013 3013 3013 3013 3013 3014 3014 3014 3013 3012 3011 3010 3009 3008 3007 3005 3004 3003 3001 3000 2998 2996 2994 2992 2990 2988 2985 2983 2981 2978 2974 2971 2967 2964 2961 2959 2956 2953 2950
2989 2988 2988 2988 2989 2989 2988 2988 2987 2987 2986 2986 2987 2987 2987 2987 2986 2986 2987 2987 2987 2988 2989 2989 2990 2990 2991 2992 2993 2994 2995 2996 2996 2997 2997 2998 2999 3001 3002 3003 3005 3006 3008 3009 3010 3010 3009 3009 3009 3010 3010 3011 3011 3010 3009 3008 3007 3007 3006 3005 3003 3002 3001 2999 2998 2997 2995 2993 2991 2989 2987 2985 2982 2980 2978 2975 2971 2968 2964 2961 2959 2956 2953 2950 2947
2985 2984 2984 2984 2984 2984 2984 2983 2982 2982 2982 2982 2982 2982 2983 2982 2982 2982 2983 2983 2983 2984 2984 2985 2986 2987 2988 2988 2989 2991 2992 2993 2993 2994 2994 2995 2996 2997 2999 3000 3002 3004 3005 3006 3006 3006 3006 3006 3007 3007 3008 3008 3008 3007 3006 3005 3004 3004 3003 3002 3000 2999 2998 2997 2995 2994 2992 2990 2988 2986 2984 2982 2979 2977 2975 2972 2968 2965 2962 2959 2956 2953 2950 2947 2945
2980 2980 2980 2979 2979 2979 2979 2978 2978 2978 2978 2977 2977 2977 2978 2978 2978 2978 2978 2978 2979 2980 2980 2981 2982 2984 2985 2986 2987 2988 2989 2989 2990 2990 2991 2992 2993 2994 2996 2997 2999 3001 3002 3003 3003 3003 3003 3004 3004 3005 3005 3005 3005 3004 3003 3002 3002 3001 3000 2999 2998 2996 2995 2994 2992 2990 2988 2986 2985 2983 2981 2979 2976 2974 2971 2968 2965 2962 2959 2956 2953 2950 2947 2945 2942